Regional Weather Roundup
Issued by NWS

Home | Current Version | Previous Version | Text Only | Print | Product List | Glossary Off
Versions: 1 2 3 4 5 6 7 8 9 10 11 12 13 14 15 16 17 18 19 20 21 22 23 24 25 26 27 28 29 30 31 32 33 34 35 36 37 38 39 40 41 42 43 44 45 46 47 48 49 50

000
ASUS43 KLOT 092106
RWRIL

ILLINOIS REGIONAL WEATHER ROUNDUP
NATIONAL WEATHER SERVICE CHICAGO/ROMEOVILLE IL
400 PM CDT WED JUL 09 2014

NOTE: "FAIR" INDICATES FEW OR NO CLOUDS BELOW 12,000 FEET WITH NO
SIGNIFICANT WEATHER AND/OR OBSTRUCTIONS TO VISIBILITY.

* THESE STATIONS ARE NOT UNDER NWS QUALITY CONTROL. THEY ALSO MAY NOT
  REPORT WEATHER SUCH AS PRECIPITATION OR FOG.

ILZ001-002-007-009-015-016-024-092200-
NORTHWEST ILLINOIS

CITY           SKY/WX    TMP DP  RH WIND       PRES   REMARKS
MOLINE         MOSUNNY   79  55  43 N10       30.00F
STERLING*      SUNNY     79  57  47 N12       30.00S HX  80
SAVANNA*       MOSUNNY   78  52  39 NW10      30.00S
$$

ILZ003-004-008-010-011-017-018-092200-
NORTH CENTRAL ILLINOIS

CITY           SKY/WX    TMP DP  RH WIND       PRES   REMARKS
ROCKFORD       MOSUNNY   75  53  46 N13       30.00S
FREEPORT*      MOSUNNY   74  53  48 NW8       30.02S
ROCHELLE*      SUNNY     76  53  43 NW10G16   30.00S
DE KALB*       MOSUNNY   75  54  47 NW12      29.99S
PERU*          MOSUNNY   78  56  46 N14       29.99S
$$

ILZ005-006-012>014-019>023-092200-
NORTHEAST ILLINOIS

CITY           SKY/WX    TMP DP  RH WIND       PRES   REMARKS
CHICAGO-OHARE  MOSUNNY   77  52  41 NW14G22   29.95S
CHICAGO-MIDWAY MOSUNNY   79  57  46 VRB3      29.95S HX  80
AURORA         SUNNY     77  55  46 NW13      29.98S
LANSING*       SUNNY     76  57  50 NE6       29.96S
JOLIET*        MOSUNNY   78  53  41 W7        29.97S
WAUKEGAN       PTSUNNY   76  53  44 VRB7      29.96S
DUPAGE AIRPORT PTSUNNY   78  54  43 NW14G23   29.97R
KANKAKEE*      MOSUNNY   75  59  57 NW6       29.97S
WHEELING       MOSUNNY   77  52  41 NW13      29.97R
MORRIS*        SUNNY     78  59  52 NW7       29.97S
ROMEOVILLE*    MOSUNNY   77  54  45 NW9       29.96S
NORTHERLY ISL    N/A     69  58  67 E6          N/A
$$

LMZ740>746-092200-
SOUTHERN LAKE MICHIGAN

STATION/POSITION SKY/WX   TEMP    WIND        PRES    VSBY  WAVE
                          AIR SEA DIR/SP/G                  HT/PER
                          (F)     (DEG/KT/KT) (MB)    (MI)  (FT/S)
SOUTHERN BUOY              58 57  110/  2/  4 1015.3R         0
WAUKEGAN HARBOR            66     150/  8/  9 1015.9S
HARRISON CRIB              66      90/  9/ 10   N/A
BURNHAM HARBOR             69      90/  4/  7   N/A
CALUMET HARBOR             69      80/  7/  9 1015.4S
MICHIGAN CITY              67      30/  8/  9   N/A
$$

ILZ025>027-034>036-040-047-049-050-058-095>099-092200-
WEST-CENTRAL ILLINOIS

CITY           SKY/WX    TMP DP  RH WIND       PRES   REMARKS
QUINCY         SUNNY     78  55  44 N12G21    30.02R
GALESBURG*     MOSUNNY   80  57  46 N12       30.02S HX  80
MACOMB*        MOSUNNY   76  56  49 N8        30.04S
JACKSONVILLE*  MOSUNNY   81  60  48 W8        30.02R HX  81
PITTSFIELD*    SUNNY     80  57  44 NW7       30.03R HX  80
$$

ILZ028>032-037-038-041>044-048-051>054-059>061-092200-
CENTRAL ILLINOIS

CITY           SKY/WX    TMP DP  RH WIND       PRES   REMARKS
PONTIAC        MOSUNNY   79  57  47 NW8       29.98S HX  80
BLOOMINGTON    PTSUNNY   78  55  44 NW12      30.00F
DECATUR        MOSUNNY   80  56  43 NW12G23   29.99F HX  80
PEORIA         SUNNY     80  52  37 NW9       30.00S HX  80
LACON*         SUNNY     77  55  46 N6        29.98F
LINCOLN*       MOSUNNY   81  55  41 NW3       29.97S HX  81
SPRINGFIELD    MOSUNNY   81  57  43 NW12G17   30.00S HX  81
TAYLORVILLE    MOSUNNY   79  59  50 NW8       29.99F HX  80
$$

ILZ033-039-045-046-055>057-062-063-092200-
EAST-CENTRAL ILLINOIS

CITY           SKY/WX    TMP DP  RH WIND       PRES   REMARKS
CHAMPAIGN      MOSUNNY   77  57  50 NW10      29.99S
RANTOUL*       MOSUNNY   78  54  43 NW6       29.99S
MATTOON        PTSUNNY   81  59  47 NW13      29.98S HX  81
PARIS*         SUNNY     80  60  50 NW10      29.99S HX  81
$$

ILZ079-100>102-092200-
SOUTHWEST ILLINOIS

CITY           SKY/WX    TMP DP  RH WIND       PRES   REMARKS
ALTON          MOSUNNY   82  61  47 W15       29.98F HX  83
BELLEVILLE     MOSUNNY   85  65  51 N12       29.97F HX  86
CAHOKIA*       MOSUNNY   86  62  44 N12       29.98S HX  86
SPARTA*        MOSUNNY   82  61  47 W7        30.00S HX  83
$$

ILZ064>066-069>071-074>076-080>082-084>086-088>090-092>094-092200-
SOUTH-CENTRAL ILLINOIS

CITY           SKY/WX    TMP DP  RH WIND       PRES   REMARKS
CARBONDALE     SUNNY     85  59  41 W10       29.99S HX  84
CAIRO*         SUNNY     88  60  38 W6        29.99F HX  87
MARION         MOSUNNY   84  63  48 W9        30.00F HX  85
MT. VERNON     MOSUNNY   84  61  45 CALM      29.99S HX  84
CENTRALIA*     MOSUNNY   85  61  43 NW5       29.99S HX  85
SALEM*         CLOUDY    84  65  51 NW9       29.99S HX  86
METROPOLIS*    MOSUNNY   85  55  35 NW7       29.98F HX  84
$$

ILZ067-068-072-073-078-083-087-091-092200-
SOUTHEAST ILLINOIS

CITY           SKY/WX    TMP DP  RH WIND       PRES   REMARKS
FLORA*         SUNNY     82  62  49 NW7       29.98F HX  83
HARRISBURG*    PTSUNNY   82  61  49 W5        30.00S HX  82
ROBINSON*      MOSUNNY   83  63  51 NW10      29.98R HX  84
CARMI*         SUNNY     85  67  54 NW5       29.97F HX  87
$$

ABBREVIATIONS USED IN REMARKS
   TC - TEMPERATURE IN CELSIUS
  WCI - WIND CHILL INDEX
   HX - HEAT INDEX
  VSB - VISIBILITY
$$



USA.gov is the U.S. government's official web portal to all federal, state and local government web resources and services.